Home   Weather   Vellore   Past weeks

Flag for India Past Weather in Vellore, Tamil Nadu, India — Yesterday and Last 2 Weeks

Now
79 °F

Light rain. Scattered clouds.


Feels Like: 83 °F
Forecast: 69 / 85 °F
Wind: No wind

Location: Madras / Minambakkam

Current Time: Dec 4, 2016 at 9:35:39 am

Latest Report: Dec 4, 2016 at 9:00 am


Visibility: 1 mi

Pressure: 29.95 "Hg

Humidity: 94%

Dew Point: 77 °F

Location of VelloreLocation

Past Weather in Vellore — Graph

°F

Vellore Temperature Yesterday

Maximum temperature yesterday: 84 °F (at 11:30 am)
Minimum temperature yesterday: 73 °F (at 12:00 am)
Average temperature yesterday: 78 °F

High & Low Weather Summary for the Past Weeks

 TemperatureHumidityPressure
High90 °F (Nov 23, 12:00 pm)100% (Nov 29, 2:00 am)29.95 "Hg (Nov 29, 2:00 am)
Low66 °F (Nov 28, 5:30 am)27% (Nov 23, 12:00 pm)29.74 "Hg (Nov 19, 2:30 pm)
Average78 °F75%29.83 "Hg
* Reported Nov 19 7:30 am — Dec 4 8:00 am, Vellore, Weather by CustomWeather, © 2016

Note: Actual official high and low records may vary slightly from our data, if they occured in-between our weather recording intervals... More about our weather records

Advertising

Vellore Weather History for the Previous 24 Hours

Scroll right to see more
 ConditionsComfort  
Time TempWeatherWind HumidityBarometerVisibility
8:00 am
Sun, Dec 4
79 °FFog.No wind94%29.95 "Hg1 mi
7:30 am77 °FFog.No wind94%29.92 "Hg1 mi
7:00 am75 °FFog.No wind100%29.92 "Hg1 mi
6:30 am75 °FFog.No wind100%29.89 "Hg1 mi
6:00 am75 °FFog.No wind100%29.89 "Hg1 mi
5:30 am75 °FFog.No wind100%29.89 "Hg1 mi
5:00 am75 °FFog.No wind100%29.89 "Hg1 mi
4:30 am75 °FFog.No wind100%29.89 "Hg1 mi
4:00 am75 °FFog.No wind100%29.89 "Hg1 mi
3:30 am75 °FFog.No wind100%29.86 "Hg1 mi
3:00 am75 °FPassing clouds.No wind100%29.86 "Hg1 mi
2:30 am75 °FThunderstorms. Passing clouds.No wind100%29.86 "Hg1 mi
2:00 am75 °FThunderstorms. Passing clouds.No wind100%29.86 "Hg1 mi
1:30 am75 °FFog.No wind100%29.89 "Hg1 mi
1:00 am75 °FFog.No wind100%29.89 "Hg2 mi
12:30 am77 °FFog.No wind94%29.92 "Hg2 mi
12:00 am77 °FFog.No wind94%29.92 "Hg2 mi
11:30 pm
Sat, Dec 3
77 °FFog.No wind94%29.92 "Hg2 mi
11:00 pm77 °FFog.No wind94%29.95 "Hg3 mi
10:30 pm77 °FFog.No wind94%29.95 "Hg3 mi
10:00 pm77 °FFog.No wind94%29.92 "Hg3 mi
9:30 pm77 °FFog.No wind94%29.92 "Hg3 mi
9:00 pm79 °FFog.No wind89%29.95 "Hg3 mi
8:30 pm79 °FFog.No wind89%29.92 "Hg3 mi
8:00 pm79 °FFog.No wind89%29.92 "Hg3 mi
7:30 pm79 °FFog.No wind89%29.92 "Hg2 mi
7:00 pm79 °FFog.No wind89%29.89 "Hg2 mi
6:30 pm79 °FFog.No wind89%29.89 "Hg2 mi
6:00 pm81 °FFog.6 mph89%29.86 "Hg2 mi
5:30 pm81 °FFog.6 mph89%29.86 "Hg2 mi
5:00 pm81 °FFog.7 mph89%29.86 "Hg2 mi
4:30 pm82 °FBroken clouds.7 mph84%29.83 "Hg2 mi
4:00 pm82 °FBroken clouds.8 mph84%29.83 "Hg2 mi
3:30 pm82 °FBroken clouds.9 mph84%29.83 "Hg2 mi
3:00 pm82 °FLight rain. Broken clouds.12 mph84%29.83 "Hg2 mi
2:30 pm82 °FThunderstorms. Broken clouds.12 mph84%29.83 "Hg2 mi
1:30 pm81 °FThunderstorms. More clouds than sun.12 mph94%29.86 "Hg1 mi
1:00 pm81 °FThunderstorms. More clouds than sun.9 mph94%29.86 "Hg1 mi
12:30 pm77 °FThunderstorms. More clouds than sun.9 mph94%29.89 "Hg1 mi
12:00 pm81 °FThunderstorms. More clouds than sun.12 mph89%29.92 "Hg1 mi
11:30 am84 °FLight rain. Broken clouds.10 mph79%29.92 "Hg2 mi
11:00 am82 °FFog.7 mph84%29.92 "Hg2 mi
10:30 am82 °FFog.No wind84%29.95 "Hg2 mi
10:00 am81 °FFog.No wind89%29.95 "Hg2 mi
9:30 am77 °FDrizzle. Broken clouds.No wind100%29.95 "Hg2 mi
9:00 am77 °FLight rain. Broken clouds.No wind94%29.95 "Hg1 mi
Weather by CustomWeather, © 2016

See weather overviewHow to use our weather pages